Regional Weather Roundup
Issued by NWS Charleston, SC

Current Version | Previous Version | Graphics & Text | Print | Product List | Glossary On
Versions: 1 2 3 4 5 6 7 8 9 10 11 12 13 14 15 16 17 18 19 20 21 22 23 24 25 26 27 28 29 30 31 32 33 34 35 36 37 38 39 40 41 42 43 44 45 46 47 48 49 50
000 ASUS42 KCHS 181012 RWRCHS REGIONAL WEATHER ROUNDUP NATIONAL WEATHER SERVICE CHARLESTON SC 500 AM EST WED JAN 18 2017 NOTE: "FAIR" INDICATES FEW OR NO CLOUDS BELOW 12,000 FEET WITH NO SIGNIFICANT WEATHER AND/OR OBSTRUCTIONS TO VISIBILITY. NOT ALL STATIONS ARE QUALITY CONTROLLED. USE DATA WITH CAUTION... ESPECIALLY DEWPOINT OBSERVATIONS. SCZ027-030-031-034>040-042>050-181100- ...SOUTHEAST SOUTH CAROLINA... CITY SKY/WX TMP DP RH WIND PRES REMARKS N CHARLESTON CLOUDY 62 57 83 SW8 30.08S WATERFRONT PRK N/A 63 59 87 VRB3 30.07F MOUNT PLEASANT FAIR 63 59 88 SW6 30.08S JOHNS ISLAND FAIR 63 59 88 SW7 30.08F PINOPOLIS N/A 61 59 94 SW8 29.97F MONCKS CORNER FAIR 61 57 88 SW7 30.07S SUMMERVILLE FAIR N/A N/A N/A SW3 30.08F BEAUFORT MCAS PTCLDY 60 57 89 W8 30.11S BEAUFORT ARPT FAIR 59 57 94 SW7 30.10S HILTON HEAD IS PTCLDY 63 59 88 SW8 30.11S WALTERBORO MOSUNNY 61 N/A N/A SW5 30.10S ALLENDALE FAIR 59 57 94 CALM 30.08S ...SOUTHERN MIDLANDS AND PEE DEE... CITY SKY/WX TMP DP RH WIND PRES REMARKS GEORGETOWN FAIR 61 57 88 W8 30.07S KINGSTREE FAIR 61 55 82 SW6 30.06R ORANGEBURG MOCLDY 61 57 87 SW7 30.06S BARNWELL FAIR 63 61 94 SW6 30.07F AIKEN FAIR 59 55 88 SW8 30.10S MANNING FAIR 61 55 82 SW7 30.06S COLUMBIA PTCLDY 65 57 75 W14 30.04S SUMTER PTCLDY 60 56 86 SW8 30.02F FLORENCE CLOUDY 63 58 83 SW15 30.02S MYRTLE BEACH CLEAR 63 55 77 SW9 30.06F N MYRTLE BEACH CLEAR 62 58 86 SW9 30.03F $$ GAZ063-065-086>088-099>101-113>116-118-119-134>141-150-181100- ...SOUTHEAST GEORGIA... CITY SKY/WX TMP DP RH WIND PRES REMARKS SAVANNAH ARPT PTCLDY 60 56 86 SW6 30.11F HUNTER AAF PTCLDY 59 59 100 SW8 30.09S FORT STEWART CLEAR 57 56 94 SW3 30.10S STATESBORO MOCLDY 62 60 94 W6 30.10F SYLVANIA CLOUDY N/A N/A N/A W3 30.11S CLAXTON FAIR N/A N/A N/A SW3 30.12R ...CSRA...CENTRAL AND FAR SOUTHEAST GEORGIA... CITY SKY/WX TMP DP RH WIND PRES REMARKS THOMSON PTCLDY 61 60 96 CALM 30.12F AUGUSTA-BUSH CLEAR 63 58 83 SW6 30.07F AUGUSTA-DANIEL CLEAR 64 57 78 VRB7 30.08F SWAINSBORO FAIR 61 59 94 W3 30.11F VIDALIA PTCLDY 63 63 100 W7 30.12S EASTMAN FAIR 62 62 100 CALM 30.15F HAZLEHURST FAIR 65 65 100 SW5 30.12S ALMA CLOUDY 61 60 97 SW3 30.13F WAYCROSS CLOUDY 63 63 100 SW5 30.14F JESUP CLOUDY 59 55 88 SW3 30.13F BAXLEY CLOUDY 64 64 100 SW5 30.12F BRUNSWICK CLEAR 59 59 100 W6 30.14F SAINT SIMONS CLEAR 57 56 96 SW5 30.14S $$ SCZ027-028-034-036>038-045-046-048>050-GAZ119-141-181100- ...LAKE AND SUPPLEMENTAL COASTAL OBSERVATIONS... STATION/POSITION TIME TEMP WIND PRES WAVE SWELL AIR SEA DIR/SP/G HT/PER HT/PER/DIR (UTC) (F) (DEG/KT/KT) (MB) (FT/S) (FT/S/D) WINYAH BAY NOT AVBL LAKE MURRAY 0920 66 250/ 15/ 21 1016.3 ACE BASIN NERRS NOT AVBL FORT PULASKI 0948 220/ 5/ 8 N/A SAPELO ISLAND 0900 58 180/ 4 1020.0 $$ ANZ835-935-AMZ111-154-330-350-352-354-370-450-454-472-181100- ...C-MAN AND BUOY OBSERVATIONS... STATION/POSITION TIME TEMP WIND PRES WAVE SWELL AIR SEA DIR/SP/G HT/PER HT/PER/DIR (UTC) (F) (DEG/KT/KT) (MB) (FT/S) (FT/S/D) BUOY 41004 0850 70 71 230/ 19/ 23 1018.5 4/ 4 2/130/ 8 BUOY 41008 0850 62 59 230/ 8/ 10 1020.2 2/10 2/110/10 FOLLY BEACH CMAN 0900 59 230/ 9/ 11 1019.3F CAPERS NEARSHORE 0908 57 54 240/ 12/ 14 1018.6F FRIPP NEARSHORE 0908 59 57 240/ 10/ 12 1019.3F STATION/POSITION TIME TEMP WIND PRES WAVE SWELL AIR SEA DIR/SP/G HT/PER HT/PER/DIR (UTC) (F) (DEG/KT/KT) (MB) (FT/S) (FT/S/D) 5E ST. MARYS GA 0930 61 N/A 2/ 5 FRYING PAN BUOY 0950 70 71 230/ 21/ 27 1017.1F 5/ 6 2/110/ 9 BUOY 41025 0950 70 72 250/ 25/ 29 1014.5F 7/ 6 2/120/11 CAPE LOOKOUT NC 0900 62 230/ 12/ 16 1015.6F BUOY 41002 0950 72 72 230/ 17/ 21 1019.3F 4/ 5 2/100/ 8 BUOY 41010 NOT AVBL ST AUGUSTINE FL 1000 62 62 250/ 7/ 7 1021.6F $$

USA.gov is the U.S. government's official web portal to all federal, state and local government web resources and services.